ITUPSAT1

Last updated on Wed Sep 23 2026 00:03:47 GMT+0000 (Coordinated Universal Time)

1 35935U 09051E 26264.97362548 .00000426 00000+0 97640-4 0 9995 2 35935 98.3946 173.0247 0006459 305.4922 54.5675 14.60558152902863
UTC large
Height (km)
Speed (km/s)
/
Latitude / Longitude
Inclination (degrees)
Orbital Period (minutes)
Azimuth
Elevation
Range (km)
Doppler Factor

Next 0 passes for location: London (51.5072 / 0.1276)

No passes found over London.
ITUPSAT1